Dewpoint
52 42 39 28 19 17 10 11 16 19 44 53 57 54 52 54 51 45 64 65 67 66 65 66 68 67 67 67 66 65 65 64 63 63 63 62 62 62 62 61 61 61 61 62 62 62 62 61 63
41 35 33 23 11 4 2 13 32 43 47 51 53 57 55 55 59 61 62 66 67 66 65 64 67 67 66 66 65 65 64 63 63 62 63 62 63 62 62 61 61 60 60 59 60 62 63 63 65
39 39 31 22 12 5 6 13 42 46 48 48 48 56 57 56 61 62 65 67 67 66 65 64 67 66 66 65 65 64 63 63 62 62 62 62 63 62 62 61 61 60 59 56 57 59 62 63 63
36 34 18 14 12 10 9 16 45 44 47 47 51 53 59 62 63 64 66 67 66 66 65 67 67 67 66 65 64 63 63 62 62 62 62 62 62 62 62 62 61 60 59 56 56 58 59 60 61
26 22 18 10 9 8 15 44 47 46 46 49 52 52 54 61 65 66 66 66 66 66 66 66 66 66 66 65 64 64 63 63 62 62 62 62 62 63 63 62 61 61 60 58 56 59 60 59 59
26 18 13 7 7 12 24 47 46 47 48 50 52 52 56 62 62 62 62 63 64 65 66 66 66 65 65 65 64 63 64 64 63 63 63 63 63 63 62 62 61 60 61 61 59 56 59 58 58
26 21 15 14 15 15 38 47 45 46 47 48 53 50 56 58 60 60 60 61 62 62 64 65 65 64 62 64 64 64 65 64 64 64 64 64 62 61 61 60 60 59 59 60 59 57 58 59 58
27 21 17 16 12 13 41 44 47 46 47 53 54 51 52 57 59 59 59 60 60 60 61 61 60 61 60 61 63 64 64 64 64 64 62 61 61 60 60 59 58 58 59 59 61 57 58 59 58
22 19 15 14 13 25 43 42 47 52 52 53 54 56 57 58 58 57 57 57 57 58 57 58 57 59 59 61 62 63 63 63 62 61 60 58 55 56 55 56 57 58 59 58 58 56 55 53 53
23 19 16 17 17 33 41 42 44 48 51 52 55 57 58 57 56 55 54 54 55 55 56 57 58 58 59 57 59 61 61 60 59 58 57 56 57 56 55 57 59 58 55 54 52 50 46 43 41
21 18 19 18 21 41 39 41 45 47 46 51 52 55 56 56 55 55 55 54 54 53 54 56 55 55 57 58 57 58 58 58 58 58 57 58 58 57 56 54 50 48 47 42 43 41 40 41 40
20 21 20 27 42 41 39 40 44 46 46 52 56 56 56 55 54 54 55 55 54 54 56 57 57 55 57 57 56 56 55 56 57 56 57 58 57 56 55 49 48 47 45 45 43 42 42 41 40
21 19 22 25 41 42 42 42 45 49 54 56 56 55 55 55 55 55 55 55 55 54 55 56 57 56 59 58 56 56 55 54 55 55 58 58 57 56 50 49 47 45 44 44 42 41 39 39 38
21 24 36 40 41 42 44 47 46 51 54 54 55 54 55 55 56 56 56 55 52 54 54 55 55 58 60 57 56 55 57 57 57 58 58 57 56 52 49 48 46 44 44 43 42 41 38 37 37
29 31 36 37 40 39 41 37 44 51 53 52 53 51 53 54 55 56 56 56 51 51 53 56 58 61 60 57 56 58 59 59 58 59 57 56 53 51 49 46 45 44 45 44 42 40 39 37 35
22 24 22 33 39 39 33 33 49 52 50 49 50 50 51 53 53 54 56 55 52 53 54 56 58 61 60 57 57 59 59 59 59 59 57 54 51 50 49 46 45 45 44 42 40 39 37 35 35
20 15 18 29 38 36 34 33 47 52 50 48 49 48 49 52 53 54 55 54 52 54 54 56 58 60 60 58 58 59 59 58 59 58 57 53 50 48 47 45 45 44 41 40 38 37 35 32 34
20 20 21 23 33 35 32 31 46 51 50 49 49 49 50 50 52 54 54 54 53 54 56 56 59 60 60 58 58 58 56 56 57 56 54 52 48 47 46 44 44 41 39 38 37 36 37 36 36
23 22 21 22 21 30 32 32 41 49 51 51 51 51 52 51 51 54 55 55 55 56 56 58 59 60 59 57 56 56 55 54 53 52 51 49 46 46 44 43 42 41 39 38 39 36 36 35 36
25 23 21 23 22 28 27 32 37 45 48 48 49 51 51 52 53 54 55 54 55 55 57 58 59 59 58 57 56 55 54 53 50 48 50 47 46 44 44 43 41 40 38 38 38 37 36 35 36
24 22 22 22 19 23 24 25 35 41 43 45 47 49 50 51 52 54 54 54 54 55 57 59 59 59 58 57 56 53 52 51 47 46 47 45 45 44 43 42 39 36 34 33 37 37 35 33 35
20 24 23 23 18 13 21 13 18 38 41 42 44 46 48 49 50 52 54 54 55 56 58 59 59 58 58 57 55 53 52 50 48 46 46 44 44 42 39 36 35 35 35 35 37 38 39 37 32
22 25 25 23 20 22 23 16 18 33 37 41 43 44 46 47 48 50 53 54 55 56 58 59 59 58 58 57 56 54 53 52 48 45 44 40 39 37 35 35 36 35 35 38 38 40 38 37 34
26 25 22 26 24 18 23 22 19 21 26 34 40 43 44 44 46 47 51 54 56 58 58 59 59 58 57 57 56 54 53 49 47 43 40 38 36 35 35 34 35 36 37 38 39 39 39 36 35
25 22 19 11 18 15 28 25 21 22 24 27 31 40 43 44 44 45 47 50 54 56 57 58 58 58 57 56 56 55 52 48 46 41 40 37 34 33 34 34 34 37 39 39 39 38 37 37 35
24 23 18 12 11 14 28 20 16 26 29 30 31 31 34 42 43 44 45 47 51 56 57 57 58 57 52 57 56 55 51 50 47 42 42 38 36 32 33 33 35 36 38 38 38 38 37 38 37
24 22 25 25 30 24 22 23 23 22 25 33 35 36 35 34 40 42 44 47 50 55 56 57 57 57 57 57 56 55 53 51 47 43 42 39 35 33 34 35 34 34 34 37 37 35 36 38 39
27 28 24 25 18 17 20 21 18 17 20 27 30 31 37 40 41 43 46 50 52 54 55 57 57 56 56 57 56 55 54 51 49 45 42 37 35 32 34 34 33 32 32 32 34 33 35 36 37
27 26 25 25 23 17 16 17 22 20 20 27 26 30 35 40 44 45 48 53 54 55 55 56 57 57 56 56 55 54 52 51 48 44 41 38 37 33 33 34 32 31 31 32 33 33 33 35 36
26 26 25 20 20 23 22 19 24 24 23 24 26 26 33 37 44 48 51 53 55 55 55 56 56 55 54 52 51 51 49 47 45 44 42 40 35 33 33 33 31 31 30 32 32 33 31 34 33
Wind_Speed
4 2 1 3 3 1 4 3 2 3 2 3 3 4 11 7 3 4 2 6 23 25 27 25 23 22 22 23 23 25 25 26 26 27 24 25 23 22 21 20 22 21 21 23 22 23 21 20 19
3 2 3 3 3 4 4 2 3 2 2 1 0 5 5 7 3 4 5 14 25 24 26 26 23 24 23 24 25 25 25 26 25 27 25 25 23 22 21 20 21 21 22 23 23 22 23 21 17
2 3 1 2 2 6 1 4 2 2 1 2 1 7 4 3 6 2 5 20 24 24 25 24 23 24 24 24 24 23 24 24 25 25 25 24 23 22 21 21 20 21 20 22 22 20 21 20 18
2 2 4 1 6 4 5 3 3 3 2 4 6 8 5 5 2 4 13 19 21 22 22 24 25 24 24 23 23 24 22 21 23 23 24 24 23 20 20 20 19 19 19 20 21 19 18 19 18
4 2 1 1 3 5 6 3 2 1 2 4 1 5 4 3 11 13 13 13 16 16 20 22 25 22 21 21 23 21 24 20 20 22 23 24 21 18 17 18 18 18 17 18 18 17 18 18 18
2 1 2 2 5 3 5 1 2 2 3 4 5 6 4 6 11 11 15 14 11 13 12 18 22 22 22 19 23 20 23 19 20 21 22 22 18 17 16 17 17 16 15 15 16 17 17 17 16
1 1 1 3 5 5 3 1 1 3 3 4 1 6 3 8 11 14 16 16 17 17 15 12 21 17 14 18 19 19 20 18 20 20 20 19 17 17 15 16 17 16 15 15 16 16 16 16 15
3 1 1 3 3 4 4 2 4 5 3 2 4 5 7 5 13 18 18 18 17 20 17 24 26 21 11 13 8 16 20 17 18 19 19 19 16 15 15 15 15 15 16 15 16 18 18 18 17
2 2 3 3 2 4 3 1 2 2 5 3 4 2 14 15 19 21 20 18 20 17 24 24 27 20 14 11 13 13 17 16 17 17 19 17 13 12 12 12 13 13 16 18 19 19 19 19 17
2 1 4 4 2 3 1 1 5 4 4 4 9 18 18 17 20 21 18 19 18 23 23 25 22 14 13 7 12 11 9 10 10 12 13 11 10 9 10 11 15 17 19 22 21 19 17 14 11
4 6 5 7 6 3 1 3 3 6 3 8 18 21 16 20 18 18 15 18 22 23 20 15 16 14 11 6 6 9 7 8 10 11 11 9 9 8 8 10 11 11 13 14 15 12 12 13 10
4 9 8 3 3 3 3 5 3 1 4 1 17 18 17 18 18 18 17 20 22 22 21 17 19 18 10 4 8 11 11 9 8 9 9 9 8 8 8 10 10 10 10 13 11 11 12 13 12
7 8 4 4 5 3 6 2 3 6 11 13 15 13 13 16 17 16 17 17 18 22 23 19 19 20 12 8 4 3 7 8 9 9 7 8 8 9 10 9 8 10 10 11 10 10 10 12 11
2 4 2 2 6 4 7 4 3 5 8 11 12 15 17 15 14 16 19 14 18 24 22 21 18 10 9 9 10 10 8 9 8 8 7 8 9 11 11 11 10 10 10 9 9 9 9 9 8
2 2 4 4 4 3 6 4 3 9 11 11 13 10 12 11 12 13 16 21 27 25 25 21 17 11 11 7 9 7 7 8 8 7 9 11 11 11 12 11 10 10 10 12 10 9 8 7 6
1 4 3 4 4 1 1 0 3 8 13 12 14 11 14 14 11 12 13 19 26 23 22 18 15 11 11 10 10 9 8 7 8 9 8 10 11 12 12 11 10 10 9 9 8 6 6 5 4
7 1 0 2 11 7 4 3 10 11 11 12 10 12 13 12 11 11 16 21 25 21 20 20 16 14 12 10 9 8 8 7 7 8 9 10 11 12 11 11 11 10 9 8 7 5 5 3 3
2 2 3 2 5 4 8 5 14 16 15 17 15 12 12 13 18 17 18 20 22 21 18 17 15 13 12 10 8 7 6 5 6 8 9 13 12 12 13 12 11 10 10 7 6 7 5 2 1
4 3 2 3 2 4 11 9 18 20 16 15 15 15 15 18 14 17 20 22 23 21 21 20 18 16 15 12 13 10 8 8 7 8 11 12 13 14 14 13 11 9 8 8 7 5 3 2 1
3 2 3 2 3 6 3 7 10 20 24 20 17 17 19 16 15 16 21 23 24 25 24 22 20 18 19 16 13 7 10 8 9 8 10 12 15 15 14 14 12 10 9 7 6 6 5 3 1
6 3 2 4 1 2 1 5 7 11 16 16 17 17 18 19 20 18 21 25 25 27 26 21 19 18 18 16 13 7 9 6 7 11 11 12 14 14 14 14 14 11 8 7 6 8 8 4 2
4 4 4 2 3 2 3 2 2 7 18 18 21 21 24 22 22 21 21 22 25 23 18 19 20 20 18 19 20 19 19 17 11 12 11 12 12 14 15 14 14 12 9 9 6 3 4 7 4
5 2 1 1 3 3 1 2 2 4 14 26 26 24 25 25 25 25 25 25 24 21 21 21 20 19 18 18 19 18 16 9 10 11 14 12 12 13 14 14 15 15 11 10 12 9 5 5 4
3 2 4 3 3 4 3 3 5 5 8 11 29 25 26 24 24 25 24 22 22 19 20 20 19 19 17 17 19 22 21 17 17 16 16 14 13 13 15 14 13 14 13 13 12 11 12 8 5
3 2 3 2 3 3 4 3 10 9 13 14 15 22 26 25 24 24 23 24 22 24 23 21 21 16 11 18 20 22 21 21 23 24 20 18 16 16 19 18 14 12 12 12 13 13 10 8 5
7 6 6 4 4 3 2 5 4 5 7 12 14 15 12 20 25 28 28 25 25 25 26 26 26 24 28 26 23 19 19 18 17 20 20 21 21 17 15 13 11 12 13 11 11 8 8 8 7
5 5 2 7 1 2 2 5 11 2 4 4 0 5 11 12 17 24 23 22 21 23 27 29 28 27 23 22 20 20 19 19 19 21 20 18 18 17 19 16 15 15 13 14 12 8 9 9 8
3 9 3 1 2 4 3 4 6 6 4 6 6 5 5 5 9 14 16 17 16 19 21 22 23 26 27 21 21 21 21 21 19 18 22 20 18 19 19 16 16 14 13 12 11 10 8 8 8
5 4 2 4 3 5 6 6 8 8 4 5 6 6 6 8 8 9 10 11 15 15 18 20 22 22 20 20 20 19 20 20 17 19 19 21 20 21 21 18 16 17 15 11 8 6 5 9 10
5 8 9 7 6 2 2 9 7 11 9 8 10 5 4 7 7 7 7 9 10 12 14 16 16 18 17 17 17 18 17 17 19 19 20 21 22 20 18 16 14 8 7 7 9 7 8 13 13
Wind_Direction
133 135 76 47 197 357 230 233 293 284 233 1 327 246 129 75 119 207 306 170 150 147 151 150 145 143 137 133 131 132 133 131 126 122 125 120 119 115 112 113 111 108 104 101 99 102 107 111 107
133 122 63 100 179 210 227 235 186 244 254 186 284 105 57 79 76 107 140 155 143 144 151 153 148 144 141 139 142 139 136 133 133 125 125 121 118 114 113 111 108 106 102 101 101 101 102 105 104
101 22 137 131 161 228 191 227 197 221 113 209 246 45 52 43 99 164 151 146 137 147 152 154 144 142 143 142 140 136 131 127 128 126 125 121 118 117 117 116 113 107 101 99 99 101 102 104 103
24 42 73 235 247 263 246 299 290 209 134 77 99 79 74 348 284 120 133 129 134 149 156 149 142 144 145 141 135 130 125 129 121 127 122 121 119 121 118 116 112 104 97 98 94 100 106 109 106
40 59 65 3 268 256 255 306 65 127 82 64 93 89 76 24 53 80 85 125 132 153 155 152 144 142 136 132 125 123 123 121 126 124 126 124 123 123 115 108 103 102 102 97 100 104 108 113 109
41 59 18 256 255 259 280 107 162 142 105 103 91 101 82 49 65 63 75 77 79 101 143 146 138 130 123 124 122 126 120 130 127 130 127 123 127 118 111 102 101 97 100 107 107 101 107 115 109
90 83 247 266 289 308 353 75 34 143 98 58 114 103 91 70 77 78 76 73 79 79 110 121 102 98 107 110 116 129 119 129 129 129 125 123 124 116 107 101 101 105 101 104 110 105 99 100 89
116 95 241 261 307 301 340 34 92 59 75 299 346 141 152 121 103 87 77 82 80 93 88 105 98 97 114 102 91 114 116 121 125 124 126 127 119 114 108 107 103 103 102 100 102 91 83 87 90
133 317 292 265 290 336 331 122 50 65 112 63 11 86 114 122 108 93 87 84 91 83 104 101 105 118 126 119 113 109 117 129 122 123 126 125 126 119 114 105 105 99 94 96 96 92 88 86 77
177 220 254 232 239 305 307 85 152 149 125 74 108 108 117 120 117 107 104 98 102 108 105 109 118 97 103 103 111 108 114 112 120 134 127 123 123 119 113 105 99 95 93 91 89 90 87 86 84
193 218 227 283 247 219 191 170 115 145 189 185 159 144 132 121 116 114 111 112 115 121 116 117 110 87 70 94 103 103 117 135 132 126 120 122 118 116 109 110 108 107 96 94 95 91 85 82 87
243 261 243 288 172 168 163 136 113 0 341 120 150 136 133 130 135 127 123 128 138 138 136 129 127 133 154 155 123 147 161 145 136 121 129 137 134 126 117 114 114 110 100 104 104 98 95 90 84
223 278 286 276 169 82 108 77 116 55 55 107 119 116 134 148 146 142 137 140 154 143 147 142 143 153 168 158 180 156 148 156 148 142 163 154 144 133 129 119 120 117 118 112 110 104 91 85 73
221 298 17 160 150 146 125 143 312 104 123 123 145 154 150 150 148 154 149 143 148 159 161 155 159 201 177 170 176 177 169 165 161 161 162 152 154 139 131 132 127 124 120 118 104 94 92 86 81
304 85 79 14 148 169 149 45 62 139 144 149 170 150 148 154 159 170 159 162 166 161 160 174 189 198 181 179 177 166 176 169 171 161 152 151 146 142 138 133 134 129 115 105 102 95 89 91 92
82 81 115 253 186 228 130 221 211 166 159 179 170 159 162 167 173 159 157 173 178 182 189 189 193 200 177 184 175 171 175 148 154 161 148 147 147 146 141 141 131 121 114 116 105 99 91 79 74
30 67 56 163 190 154 197 173 194 185 191 204 202 183 176 168 185 187 179 181 186 195 193 193 197 196 184 184 174 176 161 158 153 155 158 154 152 152 142 134 129 131 122 104 105 92 71 70 108
86 25 13 332 159 166 165 181 181 191 203 212 220 213 211 203 200 197 195 193 196 200 201 200 203 197 188 177 166 166 155 154 161 175 174 163 153 143 135 130 133 124 114 117 111 88 69 52 147
153 181 240 250 280 221 230 192 193 194 214 221 223 231 231 222 216 202 200 200 203 207 209 208 200 193 181 177 179 182 178 171 186 179 172 156 149 148 143 133 130 129 135 125 113 117 145 129 129
177 250 317 282 347 197 117 210 203 194 216 216 219 226 228 235 213 205 200 201 206 209 210 210 207 189 190 188 182 183 175 186 175 164 164 162 154 151 145 144 142 141 128 126 147 172 168 158 130
177 280 287 267 65 42 293 144 183 216 227 235 228 232 238 231 230 214 202 203 204 210 208 205 203 199 197 189 170 137 124 117 165 172 158 158 152 154 152 151 142 140 141 149 165 179 174 195 171
232 175 358 300 175 255 324 286 182 203 216 228 237 216 227 225 227 227 218 210 210 210 202 203 202 200 197 189 189 184 192 187 185 175 162 156 158 158 156 149 146 143 148 155 148 208 204 177 170
236 176 151 164 150 152 25 216 245 144 217 228 229 231 223 221 218 220 220 219 216 202 197 198 197 198 198 198 198 195 191 181 151 154 154 161 163 160 155 157 155 155 152 154 157 168 180 169 181
139 134 59 75 120 198 177 217 266 218 225 234 230 230 231 229 221 220 218 215 216 202 196 196 190 198 196 201 204 201 190 166 164 164 165 171 168 168 169 167 165 158 155 161 173 170 178 166 156
135 131 256 212 190 196 144 171 245 251 266 257 263 223 228 227 228 226 212 206 201 192 194 192 185 186 189 208 208 206 189 175 176 177 172 168 178 185 184 174 169 161 164 169 169 178 172 154 173
187 200 198 215 202 199 179 225 239 208 257 267 273 272 256 226 226 229 226 213 203 190 186 190 189 180 177 220 210 202 191 183 189 179 176 184 190 186 173 174 167 163 167 172 191 177 171 171 185
167 199 130 117 81 247 234 267 282 332 352 347 343 237 265 253 230 230 229 217 206 190 189 191 196 193 198 203 200 195 196 196 193 190 194 185 187 180 174 174 175 173 182 184 174 182 183 185 197
199 145 155 84 226 262 257 267 258 306 345 347 359 1 318 274 233 233 232 224 205 192 195 194 200 202 206 204 200 203 204 201 196 191 194 190 184 179 178 179 180 182 182 183 177 191 180 194 208
156 187 107 128 174 250 264 254 222 252 260 274 301 269 267 271 266 233 223 216 204 195 194 194 201 205 202 205 205 204 204 199 194 193 187 187 182 183 182 180 185 183 187 180 191 209 187 213 223
188 194 178 215 232 212 226 267 251 259 271 267 280 295 240 249 249 247 216 202 194 197 191 195 198 202 208 204 199 206 198 189 192 193 191 191 188 185 181 186 189 186 174 184 193 208 215 218 223